Regional Weather Roundup
Issued by NWS

Home | Current Version | Previous Version | Text Only | Print | Product List | Glossary Off
Versions: 1 2 3 4 5 6 7 8 9 10 11 12 13 14 15 16 17 18 19 20 21 22 23 24 25 26 27 28 29 30 31 32 33 34 35 36 37 38 39 40 41 42 43 44 45 46 47 48 49 50

000
ASUS43 KMPX 061910
RWRMN
WEATHER ROUNDUP FOR MINNESOTA
NATIONAL WEATHER SERVICE TWIN CITIES/CHANHASSEN MN
200 PM CDT MON JUL 06 2015


NOTE: "FAIR" INDICATES FEW OR NO CLOUDS BELOW 12,000 FEET WITH NO
SIGNIFICANT WEATHER AND/OR OBSTRUCTIONS TO VISIBILITY. N/A MEANS
CURRENT SKY AND/OR WEATHER CONDITIONS ARE NOT AVAILABLE.

MNZ060>063-068>070-062000-
   Twin Cities Metro

CITY           SKY/WX    TMP DP  RH WIND       PRES   REMARKS
TWIN CITIES    LGT RAIN  65  61  87 N12       29.91R FOG
ST PAUL        LGT RAIN  64  60  87 N7        29.91R FOG
CRYSTAL        CLOUDY    67  61  81 N13       29.91R HAZE
BLAINE         PTSUNNY   66  64  94 N14       29.91S FOG
LAKEVILLE      LGT RAIN  63  59  88 N13G18    29.91R
EDEN PRAIRIE   CLOUDY    67  61  81 N15G21    29.91R HAZE
SOUTH ST PAUL  LGT RAIN  63  60  91 N16G23    29.90R
LAKE ELMO      LGT RAIN  63  59  88 N13       29.91R
$$
MNZ001>005-007-008-013>017-022>024-027-028-062000-
   Northwest Minnesota

CITY           SKY/WX    TMP DP  RH WIND       PRES   REMARKS
BEMIDJI        CLOUDY    60  46  58 NW16      30.03S
HALLOCK        PTSUNNY   63  48  59 N16G23    30.09S
ROSEAU         PTSUNNY   61  50  67 N12G18    30.06S
WARROAD        PTSUNNY   59  48  67 NW16G22   30.06S
THIEF RVR FALL CLOUDY    61  45  55 NW18      30.08R
CROOKSTON      CLOUDY    61  50  67 N13       30.11R
FOSSTON        CLOUDY    61  46  59 NW18G24   30.08R
DETROIT LAKES  SUNNY     64  45  48 N16G28    30.06S
MOORHEAD       SUNNY     66  50  55 N22G29    30.08S
PARK RAPIDS    MOSUNNY   65  47  52 NW20G25   30.02R
MAHNOMEN       CLOUDY    62  46  54 N17G24    30.06S
$$
MNZ006-009>011-018-025>026-062000-
   North Central Minnesota

CITY           SKY/WX    TMP DP  RH WIND       PRES   REMARKS
BAUDETTE       PTSUNNY   61  46  57 NW17      30.02S
FLAG ISLAND    MOSUNNY   59  45  58 N15G25    30.03S
INTL FALLS     CLOUDY    61  45  55 NW15G22   29.99S
WASKISH        CLOUDY    61  46  59 N8        30.03S
BIG FORK       PTSUNNY   64  46  52 NW8G16    30.00R
LONGVILLE      MOSUNNY   64  50  59 NW7G24    30.00R
GRAND RAPIDS   PTSUNNY   64  48  55 N14G24    29.97S
CRANE LAKE     CLOUDY    61  48  63 N6        29.97R
COOK           PTSUNNY   63  50  63 NW8       29.97R
WALKER         FAIR      62  46  56 N8G17     30.01S
$$
MNZ012-019>021-037-062000-
   Northeast Minnesota

CITY           SKY/WX    TMP DP  RH WIND       PRES   REMARKS
DULUTH         CLOUDY    63  59  87 N5        29.93F FOG
ELY            PTSUNNY   61  52  72 N6        29.94S
HIBBING        PTSUNNY   65  51  60 NW12      29.96R
DULUTH HARBOR  LGT RAIN  61  57  88 E3        29.93F
TWO HARBORS    LGT RAIN  64  59  82 CALM      29.91S
SILVER BAY     LGT RAIN  63  61  94 CALM      29.91R
GRAND MARAIS     N/A     56  55  97 CALM      29.90R
G MARAIS ARPRT LGT RAIN  59  54  82 W3        29.93R
$$
MNZ029>031-032-039>041-046>048-054>057-064-062000-
   West Central Minnesota

CITY           SKY/WX    TMP DP  RH WIND       PRES   REMARKS
FERGUS FALLS   SUNNY     66  48  52 N15G25    30.04S
WHEATON        SUNNY     64  52  63 NW17G24   30.07S
MORRIS         SUNNY     70  55  60 NW22G28   30.01S
ALEXANDRIA     SUNNY     69  52  54 N18G25    30.02S
ELBOW LAKE     FAIR      67  51  56 NW20      30.03S
WADENA         MOSUNNY   64  48  55 N17G25    30.01S
GLENWOOD       SUNNY     72  54  53 N22G28    30.00S
APPLETON       SUNNY     73  55  53 N20G29    30.01R
BENSON         SUNNY     72  55  56 N17G25    30.00R HAZE
ORTONVILLE     SUNNY     70  54  56 N21G28    30.04R
MADISON        SUNNY     70  54  56 N20G28    30.02R
WILLMAR        FAIR      72  61  68 N14       29.99R HAZE
$$
MNZ033>034-036-042>043-049>051-058-059-062000-
   Central Minnesota

CITY           SKY/WX    TMP DP  RH WIND       PRES   REMARKS
ST CLOUD       CLOUDY    68  60  75 N14G21    29.95R HAZE
SAUK CENTRE    MOCLDY    69  56  61 NW14G24   29.98S HAZE
PAYNESVILLE    CLOUDY    68  58  69 NW14G20   29.98S HAZE
AITKIN         PTSUNNY   66  55  68 NW12      29.96S
PINE RIVER       N/A     68  52  56 NW12G20   30.01S
BRAINERD       PTSUNNY   69  54  58 N10       29.97F
STAPLES        SUNNY     70  50  49 NW17      29.99S
LONG PRAIRIE   FAIR      70  54  56 NW13G18   29.98F
LITTLE FALLS     N/A     68  55  64 N7        29.97S HAZE
LITCHFIELD     CLOUDY    72  64  78 N14G20    29.96S HAZE
BUFFALO          N/A     69  59  70 N18       29.94S HAZE
MAPLE LAKE       N/A     68  63  83 N13G18    29.95S HAZE
$$
MNZ037-044-045-052-053-062000-
   East Central Minnesota

CITY           SKY/WX    TMP DP  RH WIND       PRES   REMARKS
PRINCETON      CLOUDY    66  61  82 NW14G24   29.95R HAZE
MORA           CLOUDY    61  61 100 N6        29.96R FOG
CAMBRIDGE      CLOUDY    64  57  77 NW9       29.92R HAZE
RUSH CITY      CLOUDY    64  61  92 N9        29.93R
MOOSE LAKE     CLOUDY    63  59  88 CALM      29.93R FOG
HINCKLEY       LGT RAIN  63  61  94 N10       29.94R
CLOQUET        CLOUDY    63  57  82 NW8       29.95R FOG
MCGREGOR       PTSUNNY   64  55  72 NW12      29.96S
$$
MNZ071>073-080-081-089-090-097-098-062000-
   Southwest Minnesota

CITY           SKY/WX    TMP DP  RH WIND       PRES   REMARKS
GRANITE FALLS  CLOUDY    70  62  73 NW16G23   30.00S HAZE
CANBY          CLOUDY    69  59  72 N15G24    30.04R HAZE
MARSHALL       PTSUNNY   72  57  60 N20G25    29.99R
REDWOOD FALLS  PTSUNNY   72  60  66 N15G24    29.97R HAZE
OLIVIA         CLOUDY    70  59  68 N16G22    29.96S HAZE
PIPESTONE      PTSUNNY   70  57  64 N18G26    30.02R HAZE
WINDOM         CLOUDY    70  57  64 N21G26    29.98R HAZE
WORTHINGTON    CLOUDY    68  59  73 N15G23    29.98R
JACKSON        CLOUDY    70  57  64 VRB16G26  29.97R HAZE
TRACY          CLOUDY    70  64  82 N18G26    29.99R HAZE
SLAYTON        CLOUDY    69  62  80 NW18G26   30.01R HAZE
$$
MNZ065>067-074>077-082>085-091>093-062000-
   South Central Minnesota

CITY           SKY/WX    TMP DP  RH WIND       PRES   REMARKS
MANKATO        CLOUDY   N/A N/A N/A N22G28    29.91S
NEW ULM        PTSUNNY   70  57  64 N14G21    29.93R HAZE
ST JAMES       PTSUNNY   72  61  68 N18G25    29.95R HAZE
FAIRMONT       CLOUDY    70  59  68 N15       29.92S
GLENCOE        CLOUDY    69  64  84 N15G21    29.94R HAZE
FARIBAULT      CLOUDY    61  61 100 N15G29    29.91R
OWATONNA       DRIZZLE   64  61  88 N22G32    29.90R
WASECA         CLOUDY    64  61  88 N18G28    29.91R HAZE
ALBERT LEA     CLOUDY    66  66 100 NW14G21   29.89R
$$
MNZ078>079-086>088-094>096-062000-
   Southeast Minnesota

CITY           SKY/WX    TMP DP  RH WIND       PRES   REMARKS
ROCHESTER      LGT RAIN  72  69  90 W14       29.85R
RED WING       LGT RAIN  66  63  88 N12G21    29.85R
STANTON        CLOUDY    64  61  88 N17G26    29.90R
DODGE CENTER   LGT RAIN  70  66  88 N21G29    29.86R
WINONA         CLOUDY    73  68  83 SW5       29.81S
AUSTIN         CLOUDY    75  70  83 W16       29.85S
PRESTON        CLOUDY    73  67  81 SW6       29.85S
$$
ABBREVIATIONS USED IN REMARKS
   TC - TEMPERATURES IN CELSIUS
  WCI - WIND CHILL INDEX
   HX - HEAT INDEX
  VSB - VISIBILITY
$$


USA.gov is the U.S. government's official web portal to all federal, state and local government web resources and services.